[[{"header":{"parameterUnit":"m.s-1","parameterCategory":1,"la1":30.2991,"la2":30.254,"lo1":-89.0895,"lo2":-89.0444,"dy":0.0017,"dx":0.0017,"nx":28,"ny":28,"refTime":"2023-08-05T09:00:00:Z","depth":0,"parameterNumber":2,"parameterNumberName":"U-component_of_WINDS"},"data":[0,0,0,0,0,0,0,0,0,0,0,0,0,0,0,0,0,0,0,0,0,0,0,0,0,0,0,0,0,0,0,0,0,0,0,0,0,0,0,0,0,0,0,0,0,0,0,0,0,0,0,0,0,0,0,0,0,0,2.5486,2.5489,0,2.569,2.5693,2.5695,2.5744,2.5742,2.5741,2.574,2.5948,2.5955,2.5962,0,0,0,0,0,0,0,0,0,0,0,0,0,2.5138,2.5144,2.5486,2.5489,2.5491,2.569,2.5693,2.5695,2.5744,2.5742,2.5741,2.5739,2.5946,2.5954,2.5962,0,0,0,0,0,0,0,0,0,0,0,0,0,2.531,2.5146,2.5486,2.5539,2.5546,2.5689,2.5693,2.5696,2.5744,2.5742,2.574,2.5738,2.5943,2.5953,2.5963,2.6067,0,0,2.5994,2.5999,0,0,0,0,0,0,0,0,2.53,2.5323,2.5529,2.5536,2.5544,2.569,2.5646,2.5821,2.5745,2.5669,2.574,2.5737,2.5864,2.588,2.5923,2.6077,2.6086,2.5995,2.6002,2.6006,2.6009,0,0,0,0,0,0,0,2.5288,2.5314,2.5567,2.5532,2.5541,2.5553,2.5575,2.568,2.5775,2.5676,2.568,2.5703,2.5867,2.5913,2.5928,2.6089,2.5995,2.6004,2.601,2.6014,2.6338,2.634,0,0,0,0,0,0,2.5267,2.5304,2.556,2.5573,2.5415,2.5561,2.5586,2.5645,2.5774,2.5792,2.5705,2.5705,2.5897,2.5916,2.5936,2.6065,2.6006,2.6015,2.6021,2.6335,2.6338,2.6341,0,0,0,0,0,0,2.5259,2.5289,2.5552,2.544,2.5474,2.5569,2.5635,2.565,2.5696,2.5796,2.5814,2.5734,2.5896,2.5921,2.6034,2.6073,2.602,2.6029,2.6332,2.6336,2.6339,2.6325,0,0,0,0,0,0,2.5249,2.5286,2.5327,2.544,2.548,2.5647,2.5638,2.5655,2.5713,2.5715,2.5828,2.5845,2.5896,2.6018,2.6044,2.6086,2.6037,2.6329,2.6334,2.6338,2.6322,2.6328,2.6332,0,0,0,0,0,2.5237,2.5315,2.5329,2.5359,2.5533,2.5649,2.5672,2.5729,2.5716,2.5758,2.5822,2.5841,2.6065,2.603,2.6059,2.6105,2.6327,2.6333,2.6338,2.632,2.6327,2.6332,0,0,0,0,0,0,2.5203,2.533,2.5347,2.5465,2.5546,2.5657,2.5711,2.5734,2.5821,2.5819,2.5886,2.5911,2.6019,2.6074,2.6032,2.6212,2.6196,2.6207,2.6172,2.6179,2.6184,2.6168,2.6046,0,0,0,0,0,2.5209,2.5294,2.54,2.5493,2.5533,2.5615,2.5668,2.5705,2.5792,2.5826,2.5899,2.5982,2.6071,2.6129,2.6216,2.6331,2.6356,2.6377,2.6382,2.6385,2.6394,2.6459,2.6469,2.6359,2.6359,2.6359,0,0,2.5223,2.5303,2.5352,2.5489,2.5556,2.5641,2.5644,2.5734,2.5798,2.584,2.5951,2.6007,2.6104,2.6218,2.6272,2.6267,2.643,2.6393,2.6395,2.6402,2.6465,2.6476,2.6485,2.6363,2.6362,2.6361,0,0,2.5291,2.5361,2.5445,2.5513,2.5615,2.5669,2.5689,2.5798,2.5837,2.5949,2.5982,2.6059,2.6211,2.6279,2.6333,2.6428,2.6448,2.6454,2.648,2.6542,2.655,2.6558,2.6591,2.6602,2.6463,2.6463,2.6463,0,2.5295,2.5425,2.5486,2.5575,2.5634,2.5677,2.5763,2.5825,2.595,2.599,2.5982,2.6174,2.6242,2.6372,2.6395,2.6438,2.6463,2.6441,2.6544,2.6553,2.6561,2.6593,2.6605,2.6463,2.6463,2.6463,2.6463,0,2.5424,2.5514,2.5571,2.5691,2.5756,2.5843,2.5917,2.5976,2.6007,2.6062,2.6175,2.6259,2.6364,2.6398,2.643,2.6533,2.6526,2.6531,2.6516,2.6571,2.6602,2.6615,2.6463,2.6463,2.6463,2.6463,0,0,2.5476,2.5629,2.5648,2.5703,2.5819,2.589,2.5979,2.6082,2.613,2.6216,2.6291,2.6419,2.6424,2.6486,2.6526,2.658,2.6648,2.6578,2.6581,2.6587,2.6766,2.6761,2.6774,2.6663,2.6666,2.6668,2.6757,0,2.5557,2.5718,2.5776,2.5907,2.5991,2.6033,2.6111,2.619,2.6244,2.6322,2.6381,2.647,2.647,2.6508,2.6564,2.6628,2.6685,2.6623,2.6734,2.6737,2.6707,2.6791,2.6786,2.6866,2.677,2.6772,2.6774,0,2.5674,2.576,2.5901,2.6006,2.6043,2.6112,2.6211,2.6286,2.6376,2.6412,2.6481,2.6517,2.6611,2.6591,2.6722,2.6678,2.6727,2.6766,2.6771,2.6782,2.6757,2.6803,2.6893,2.6905,2.6794,2.6792,2.6791,0,2.5695,2.5848,2.5951,2.5997,2.6123,2.617,2.6225,2.6314,2.6372,2.6459,2.6497,2.6593,2.6646,2.6719,2.6781,2.6761,2.6905,2.6891,2.6937,2.6935,2.6964,2.6961,2.7062,2.6997,2.6997,2.6997,2.6997,0,2.578,2.5864,2.5963,2.6026,2.6121,2.6187,2.6279,2.6337,2.6415,2.649,2.6533,2.6603,2.668,2.676,2.6808,2.6909,2.6932,2.6963,2.6975,2.6959,2.6954,2.6991,2.6986,2.7,2.7,2.6999,2.6998,0,2.582,2.589,2.6005,2.6115,2.6145,2.621,2.6304,2.6367,2.6423,2.6518,2.6544,2.6631,2.6727,2.6796,2.6919,2.6952,2.7059,2.7072,2.7029,2.7034,2.7076,2.707,2.7202,2.7223,2.7145,2.7146,2.7146,0,2.5868,2.5934,2.6051,2.6105,2.6159,2.6245,2.6305,2.6372,2.6433,2.6541,2.6591,2.669,2.6772,2.6923,2.6998,2.7092,2.7107,2.7146,2.7121,2.7102,2.7106,2.7101,2.7107,2.7149,2.715,2.715,2.7151,0,2.5946,2.5978,2.6063,2.616,2.623,2.631,2.639,2.6431,2.6513,2.6578,2.6677,2.6741,2.6867,2.6964,2.7067,2.7123,2.715,2.7158,2.7174,2.7157,2.7129,2.7144,2.7037,2.7155,2.7154,2.7154,2.7154,2.7154,2.5992,2.6052,2.6144,2.6237,2.6304,2.6378,2.6443,2.6507,2.6591,2.6699,2.6734,2.6836,2.6925,2.7065,2.7122,2.7203,2.7201,2.7224,2.7229,2.7233,2.7232,2.7117,2.7222,2.7222,2.7222,2.7222,2.7222,0,2.6071,2.6132,2.6218,2.6329,2.6402,2.6422,2.6512,2.6571,2.6661,2.6742,2.6823,2.6936,2.7031,2.7113,2.7211,2.7259,2.7274,2.7283,2.7279,2.7292,2.7228,2.7205,2.7269,2.7269,2.7269,2.7269,2.7269,2.7269,2.6121,2.6223,2.6266,2.6402,2.6464,2.6564,2.6614,2.6682,2.6747,2.6872,2.6951,2.7004,2.7086,2.719,2.7278,2.73,2.7333,2.7338,2.7363,2.7302,2.7296,2.7291,2.7269,2.7345,2.7346,2.742,2.742,2.7421]},{"header":{"parameterUnit":"m.s-1","parameterCategory":1,"la1":30.2991,"la2":30.254,"lo1":-89.0895,"lo2":-89.0444,"dy":0.0017,"dx":0.0017,"nx":28,"ny":28,"refTime":"2023-08-05T09:00:00:Z","depth":0,"parameterNumber":3,"parameterNumberName":"V-component_of_WINDS"},"data":[0,0,0,0,0,0,0,0,0,0,0,0,0,0,0,0,0,0,0,0,0,0,0,0,0,0,0,0,0,0,0,0,0,0,0,0,0,0,0,0,0,0,0,0,0,0,0,0,0,0,0,0,0,0,0,0,0,0,6.2001,6.2001,0,6.2006,6.2006,6.2006,6.1926,6.1924,6.1922,6.1919,6.1923,6.1925,6.1927,0,0,0,0,0,0,0,0,0,0,0,0,0,6.192,6.1922,6.2001,6.2001,6.2001,6.2006,6.2006,6.2006,6.1926,6.1924,6.1921,6.1918,6.1922,6.1925,6.1928,0,0,0,0,0,0,0,0,0,0,0,0,0,6.1943,6.1922,6.2001,6.1962,6.1958,6.2006,6.2006,6.2006,6.1927,6.1924,6.192,6.1917,6.1922,6.1925,6.1928,6.2013,0,0,6.1938,6.1939,0,0,0,0,0,0,0,0,6.1942,6.1946,6.1967,6.1965,6.1961,6.1962,6.1979,6.2009,6.1928,6.1939,6.1919,6.1916,6.1939,6.194,6.1948,6.2013,6.2013,6.1938,6.194,6.1941,6.1942,0,0,0,0,0,0,0,6.194,6.1945,6.2003,6.1968,6.1964,6.1943,6.1943,6.1984,6.1957,6.1937,6.1932,6.1934,6.1936,6.1945,6.1948,6.2013,6.1938,6.1941,6.1943,6.1944,6.2148,6.2151,0,0,0,0,0,0,6.1944,6.1945,6.2003,6.2003,6.1943,6.1948,6.1947,6.1965,6.1956,6.1952,6.1936,6.193,6.1942,6.1944,6.1948,6.2046,6.1941,6.1944,6.1946,6.2145,6.2149,6.2153,0,0,0,0,0,0,6.1943,6.195,6.2003,6.1972,6.1977,6.1952,6.1973,6.1967,6.1976,6.1955,6.195,6.1951,6.1939,6.1943,6.1997,6.2045,6.1946,6.1949,6.214,6.2146,6.2151,6.2245,0,0,0,0,0,0,6.1941,6.195,6.1983,6.1974,6.1979,6.2053,6.1976,6.1969,6.1982,6.1973,6.1968,6.1963,6.1937,6.1993,6.2001,6.2048,6.1951,6.2136,6.2143,6.2149,6.2237,6.2253,6.2266,0,0,0,0,0,6.1938,6.2008,6.1985,6.1992,6.2019,6.2056,6.2059,6.2027,6.1986,6.2018,6.2005,6.1964,6.2039,6.1999,6.2007,6.2056,6.2133,6.2141,6.2149,6.2231,6.225,6.2265,0,0,0,0,0,0,6.2023,6.2006,6.198,6.2049,6.2055,6.2042,6.2082,6.2048,6.2065,6.2056,6.2016,6.2015,6.2076,6.2071,6.2027,6.2138,6.2079,6.2088,6.2138,6.2156,6.217,6.2169,6.1954,0,0,0,0,0,6.205,6.2081,6.2065,6.2128,6.2132,6.2107,6.2121,6.2097,6.21,6.2102,6.2093,6.2097,6.2122,6.2139,6.216,6.2237,6.2234,6.2274,6.2288,6.23,6.2309,6.2348,6.2366,6.2179,6.2178,6.2178,0,0,6.2105,6.21,6.2122,6.2145,6.2146,6.2179,6.2109,6.2147,6.2171,6.2107,6.2158,6.2152,6.2154,6.222,6.2248,6.2218,6.236,6.231,6.232,6.2322,6.2358,6.2376,6.2392,6.2184,6.2183,6.2182,0,0,6.2223,6.2223,6.2275,6.2278,6.2281,6.2264,6.2277,6.227,6.2263,6.2313,6.2267,6.2294,6.2338,6.2341,6.2349,6.247,6.2432,6.2478,6.2552,6.2591,6.2606,6.2618,6.2661,6.2677,6.2487,6.2487,6.2487,0,6.2291,6.234,6.2306,6.2347,6.2358,6.2304,6.2356,6.236,6.237,6.2379,6.2345,6.2399,6.2396,6.2462,6.2491,6.25,6.2512,6.2477,6.2606,6.2619,6.263,6.267,6.2686,6.2492,6.2492,6.2491,6.2491,0,6.2423,6.2458,6.2499,6.2511,6.2527,6.2574,6.2547,6.2567,6.2541,6.2528,6.258,6.2575,6.2595,6.2609,6.2584,6.2671,6.2652,6.2613,6.2553,6.2654,6.2691,6.2706,6.25,6.2498,6.2497,6.2495,0,0,6.2593,6.2586,6.2602,6.2607,6.2607,6.2632,6.2677,6.2697,6.2714,6.2723,6.2759,6.2797,6.2761,6.277,6.2745,6.278,6.2875,6.2736,6.2736,6.2762,6.297,6.2999,6.3017,6.2851,6.2854,6.2856,6.297,0,6.2707,6.2782,6.2754,6.2831,6.2862,6.2811,6.285,6.2854,6.2842,6.2867,6.2854,6.2882,6.2832,6.2837,6.2869,6.2857,6.2916,6.2848,6.2883,6.2884,6.2883,6.3037,6.3067,6.3175,6.2984,6.2986,6.2988,0,6.285,6.2865,6.2946,6.2941,6.2953,6.2988,6.3004,6.3028,6.3032,6.3021,6.3032,6.2999,6.3042,6.2983,6.304,6.2995,6.3007,6.3003,6.3007,6.3008,6.2942,6.3041,6.3208,6.3224,6.3011,6.3009,6.3007,0,6.2965,6.3006,6.3059,6.3065,6.306,6.3086,6.3085,6.3086,6.31,6.3114,6.3122,6.3141,6.3151,6.3167,6.314,6.31,6.3202,6.314,6.3193,6.3194,6.3216,6.3215,6.3387,6.3226,6.3226,6.3226,6.3225,0,6.3094,6.3145,6.3111,6.3144,6.32,6.3166,6.3222,6.3216,6.3217,6.3247,6.3204,6.3234,6.3197,6.3223,6.3203,6.3254,6.3259,6.3251,6.3245,6.3254,6.3255,6.3261,6.3252,6.323,6.3229,6.3228,6.3227,0,6.3231,6.3211,6.3265,6.3257,6.3256,6.3298,6.329,6.332,6.3306,6.3345,6.3352,6.3331,6.3359,6.3334,6.3361,6.3348,6.3415,6.3398,6.3414,6.3409,6.3463,6.3458,6.3644,6.3667,6.3493,6.3494,6.3496,0,6.3315,6.3353,6.3349,6.3367,6.3369,6.3398,6.3412,6.3381,6.3398,6.3405,6.3434,6.3459,6.3477,6.3524,6.351,6.3531,6.3514,6.3578,6.3517,6.3525,6.3514,6.3512,6.3515,6.359,6.3592,6.3594,6.3595,0,6.3465,6.3453,6.3476,6.3496,6.3514,6.3528,6.3538,6.3555,6.3523,6.3544,6.3572,6.3586,6.3615,6.3639,6.3656,6.3654,6.362,6.3615,6.3628,6.3637,6.3645,6.3641,6.3447,6.361,6.3609,6.3608,6.3607,6.3606,6.3577,6.3609,6.3612,6.3638,6.3643,6.3654,6.3681,6.3672,6.3695,6.3716,6.3696,6.3731,6.3733,6.3752,6.3755,6.3781,6.3754,6.3773,6.3778,6.3783,6.3791,6.3642,6.3784,6.3783,6.3783,6.3782,6.3782,0,6.3725,6.3724,6.3749,6.3765,6.3787,6.3753,6.3763,6.3783,6.3814,6.3819,6.3838,6.3871,6.3896,6.3885,6.3905,6.3929,6.3913,6.3935,6.3933,6.3933,6.3814,6.38,6.3947,6.3947,6.3947,6.3947,6.3947,6.3947,6.3804,6.3856,6.3844,6.3898,6.3897,6.3931,6.3939,6.3949,6.3953,6.3992,6.4012,6.4005,6.4004,6.4025,6.4045,6.4041,6.4051,6.4078,6.4069,6.3957,6.3941,6.3926,6.3912,6.4081,6.4081,6.4185,6.4186,6.4187]}]]